[ ตารางข้อมูล ] [ Min-Max ] [ วันนี้4 ] [ วันนี้2 ] [ เทียบ3วัน A ] [ เทียบ4วัน B ]   

วันนี้2   [ ◀ ช่วงเก่ากว่า ] [ ช่วงที่ 341 ] [ ช่วงใหม่กว่า ▶ ] [ ล่าสุด ]    [ 3 ชั่วโมง ] [ 6 ชั่วโมง ] [ 12 ชั่วโมง ] [ 24 ชั่วโมง ]   วันนี้2

อุณภูมิตู้ Knockdown4529  ราย 3 ชั่วโมง  ที่วัดได้ ในช่วงวันเวลา 29/03/2026 (09:51) ถึง 29/03/2026 (12:51) 
ความชื้นในตู้ Knockdown4529  ราย 3 ชั่วโมง  ที่วัดได้ ในช่วงวันเวลา 29/03/2026 (09:51) ถึง 29/03/2026 (12:51) 

 
DS18B20SHTC3 
IDDate d/m/Y & Timedata1
สูง
data2
ต่ำ
data3
นอก
temp
pcb
hum
pcb
Time
 6891  29/03/2026 12:49:49  30.4  29.6  31.0  30.0  68.8  12:49 
 6890  29/03/2026 12:45:07  30.4  29.6  31.0  29.9  68.6  12:45 
 6889  29/03/2026 12:40:25  30.4  29.5  31.0  30.0  68.8  12:40 
 6888  29/03/2026 12:35:43  30.3  29.5  31.3  29.7  68.8  12:35 
 6887  29/03/2026 12:31:01  30.2  29.4  31.2  29.8  69.0  12:31 
 6886  29/03/2026 12:26:19  30.2  29.4  31.5  29.7  69.0  12:26 
 6885  29/03/2026 12:21:37  30.2  29.4  31.0  29.7  68.8  12:21 
 6884  29/03/2026 12:16:55  30.2  29.3  30.9  29.6  68.8  12:16 
 6883  29/03/2026 12:12:13  30.1  29.3  31.3  29.7  69.0  12:12 
 6882  29/03/2026 12:07:31  29.9  29.2  31.5  29.6  69.3  12:07 
 6881  29/03/2026 12:02:49  29.8  29.2  31.5  29.4  69.4  12:02 
 6880  29/03/2026 11:58:06  29.7  29.2  30.7  29.6  69.5  11:58 
 6879  29/03/2026 11:53:25  29.7  29.2  30.2  29.2  69.4  11:53 
 6878  29/03/2026 11:48:43  29.7  29.2  30.0  29.4  69.3  11:48 
 6877  29/03/2026 11:44:02  29.7  29.2  30.0  29.3  69.3  11:44 
 6876  29/03/2026 11:39:21  29.7  29.2  29.9  29.4  69.3  11:39 
 6875  29/03/2026 11:34:39  29.7  29.2  29.9  29.3  69.2  11:34 
 6874  29/03/2026 11:29:57  29.8  29.1  29.7  29.4  69.3  11:29 
 6873  29/03/2026 11:25:15  29.8  29.1  29.9  29.4  69.2  11:25 
 6872  29/03/2026 11:20:33  29.8  29.1  30.0  29.2  69.1  11:20 
 6871  29/03/2026 11:15:52  29.8  29.1  30.2  29.2  69.0  11:15 
 6870  29/03/2026 11:11:10  29.8  29.1  30.1  29.4  68.9  11:11 
 6869  29/03/2026 11:06:28  29.8  29.1  30.0  29.4  68.8  11:06 
 6868  29/03/2026 11:01:47  29.8  29.0  30.3  29.2  68.6  11:01 

Data every 5 minute.


ใช้เวลาประมวลผล 0.00183 วินาที